Regional Weather Roundup
Issued by NWS

Home | Current Version | Previous Version | Text Only | Print | Product List | Glossary On
Versions: 1 2 3 4 5 6 7 8 9 10 11 12 13 14 15 16 17 18 19 20 21 22 23 24 25 26 27 28 29 30 31 32 33 34 35 36 37 38 39 40 41 42 43 44 45 46 47 48 49 50
000
ASUS43 KTOP 090959
RWRKS

WEATHER ROUNDUP FOR KANSAS
NATIONAL WEATHER SERVICE GOODLAND KS
400 AM CST TUE FEB 09 2016

NOTE:  "FAIR" INDICATES FEW OR NO CLOUDS BELOW 12,000 FEET WITH NO
SIGNIFICANT WEATHER AND/OR OBSTRUCTIONS TO VISIBILITY.

KSZ001>006-013>018-027>032-041>047-091100-
NORTHWEST KANSAS

CITY           SKY/WX    TMP DP  RH WIND       PRES   REMARKS
GOODLAND       CLOUDY    22  19  89 NW9       30.21F
HAYS           CLOUDY    36  18  48 NW12      30.19F WCI  27
HILL CITY      CLOUDY    33  23  66 NW9       30.21S
RUSSELL        CLOUDY    34  22  61 NW13      30.18S WCI  25
$$

KSZ061>065-074>080-084>089-091100-
SOUTHWEST KANSAS

CITY           SKY/WX    TMP DP  RH WIND       PRES   REMARKS
DODGE CITY     CLEAR     29  22  75 NW14      30.22F WCI  18
ELKHART          N/A     35  20  54 W13         N/A  WCI  26
GARDEN CITY    CLEAR     28  24  85 NW10      30.23S WCI  19
GREAT BEND     MOCLDY    34  18  51 NW13      30.18F WCI  25
LIBERAL        CLEAR     34  23  64 NW10      30.24F WCI  26
$$

KSZ066>073-081>083-090>101-091100-
SOUTHEAST KANSAS

CITY           SKY/WX    TMP DP  RH WIND       PRES   REMARKS
CHANUTE        CLEAR     26  18  71 W8        30.09S
COFFEYVILLE    PTCLDY    30  18  60 W9        30.13S
HUTCHINSON     CLEAR     33  16  49 NW13      30.16F WCI  24
MEDICINE LODGE   N/A     31  20  63 NW8       30.18F
NEWTON         CLEAR     28  16  59 NW14      30.14F WCI  17
PARSONS        CLEAR     30  19  63 NW10      30.10F WCI  21
WICHITA INTL   PTCLDY    30  17  58 NW9       30.16S
WICHITA JABRA  CLEAR     31  17  56 NW13      30.15S WCI  21
WINFIELD       CLEAR     26  18  71 W9        30.17F
$$

KSZ007>012-019>026-033>040-048>060-102>105-091100-
NORTHEAST KANSAS

CITY           SKY/WX    TMP DP  RH WIND       PRES   REMARKS
CONCORDIA      CLEAR     27  17  66 NW9       30.15S
EMPORIA        CLEAR     30  17  58 NW12G22   30.09F WCI  20
LAWRENCE       PTCLDY    28  11  48 NW28G35   30.07S WCI  13
MANHATTAN      CLEAR     30  19  63 NW6       30.15R
OLATHE IND     CLEAR     27  14  58 NW16      30.04S WCI  15
OLATHE EXE     CLEAR     26  10  50 NW20G31   30.02S WCI  12
SALINA         CLEAR     31  17  56 NW12      30.17S WCI  22
TOPEKA BILLARD CLEAR     30  15  53 NW18G24   30.09S WCI  18
TOPEKA FORBES  PTCLDY    30  19  63 NW13G22   30.07S WCI  20
$$



USA.gov is the U.S. government's official web portal to all federal, state and local government web resources and services.